DateTimeUTC,F1_A11,F1_S11,BsB_S11,BsG_S11,BsR_S11,BbsB_S11,BbsG_S11,BbsR_S11,BaB_A11,BaG_A11,BaR_A11,Tu_S11,T_S11,Uu_S11,U_S11,P_S11,T1_A11
2021-04-26T11:00:00Z,00000200,21000000,,,,,,,-000.15,0000.01,0000.12,16.7,23.7,01.2,00.8,0685.3,31.0
2021-04-26T11:01:00Z,00000200,21000000,,,,,,,-000.01,-000.10,-000.21,16.7,23.8,01.2,00.8,0685.3,31.0
2021-04-26T11:02:00Z,00000200,21000000,,,,,,,0000.10,-000.16,-000.03,16.7,23.8,01.2,00.8,0685.3,31.0
2021-04-26T11:03:00Z,00000200,61000000,,,,,,,0000.52,0000.82,0000.61,16.7,23.8,01.2,00.8,0685.3,31.0
2021-04-26T11:04:00Z,00000200,41000000,0002.07,0001.68,0001.00,0000.60,-000.02,0000.26,0000.70,0000.60,0000.41,16.7,23.6,01.4,00.9,0686.3,31.0
2021-04-26T11:05:00Z,00000200,01000000,0002.74,0001.70,0001.49,0000.41,0000.50,0000.65,0000.87,0000.54,0000.79,16.8,23.5,01.5,01.0,0686.3,31.0
2021-04-26T11:06:00Z,00000200,01000000,0002.34,0001.68,0000.98,0000.30,0000.48,0000.42,0000.76,0000.84,-000.13,16.8,23.5,01.5,01.0,0686.3,31.0
2021-04-26T11:07:00Z,00000200,01000000,0002.80,0001.79,0001.17,0000.70,0000.42,0000.15,0000.77,0000.92,0000.69,16.8,23.5,01.6,01.0,0686.3,31.0
2021-04-26T11:08:00Z,00000200,01000000,0003.15,0001.54,0001.09,0000.81,0000.19,0000.49,0000.83,0000.75,0001.04,16.8,23.5,01.7,01.2,0686.3,31.0
2021-04-26T11:09:00Z,00000200,01000000,0002.16,0001.64,0001.20,-000.04,0000.39,0000.49,0000.63,0000.48,0000.22,16.8,23.5,01.8,01.2,0686.3,31.0
2021-04-26T11:10:00Z,00000200,01000000,0002.32,0001.82,0001.22,0000.60,0000.61,0000.37,0000.89,0000.77,0000.74,16.8,23.4,01.7,01.1,0686.3,31.0
2021-04-26T11:11:00Z,00000200,01000000,0003.13,0001.46,0001.10,0000.24,0000.15,0000.31,0000.55,0000.53,0000.18,16.8,23.4,01.7,01.1,0686.3,31.0
2021-04-26T11:12:00Z,00000200,01000000,0002.27,0001.89,0001.28,0001.04,0000.36,0000.58,0000.55,0000.42,0000.56,16.8,23.4,01.7,01.1,0686.3,31.0
2021-04-26T11:13:00Z,00000200,01000000,0002.71,0001.77,0001.12,0000.42,0000.10,0000.62,0000.54,0000.77,0000.45,16.8,23.4,01.6,01.1,0686.4,31.0
2021-04-26T11:14:00Z,00000200,01000000,0002.92,0001.79,0001.38,0000.58,0000.30,0000.59,0000.53,0000.02,0000.35,16.8,23.4,01.6,01.0,0686.3,31.0
2021-04-26T11:15:00Z,00000200,01000000,0003.27,0001.70,0000.90,0000.88,0000.41,0000.51,0000.48,0001.08,0000.51,16.9,23.5,01.6,01.0,0686.3,31.0
2021-04-26T11:16:00Z,00000200,01000000,0003.02,0001.84,0000.74,0000.86,0000.38,0000.48,0001.31,0000.51,0000.43,16.9,23.5,01.5,01.0,0686.3,31.0
2021-04-26T11:17:00Z,00000200,01000000,0002.91,0001.66,0001.23,0000.55,0000.12,0000.32,0000.42,0000.39,0000.26,16.9,23.5,01.6,01.1,0686.3,31.0
2021-04-26T11:18:00Z,00000200,01000000,0003.00,0001.71,0001.32,0000.80,0000.20,0000.80,0000.59,0000.89,0000.52,16.9,23.5,01.5,01.0,0686.3,31.0
2021-04-26T11:19:00Z,00000200,01000000,0002.97,0001.89,0001.20,0000.67,0000.31,0000.71,0000.58,0000.71,0000.45,16.9,23.5,01.6,01.0,0686.3,31.0
2021-04-26T11:20:00Z,00000200,01000000,0002.02,0001.69,0001.02,0000.20,0000.53,0000.34,0000.80,0000.85,0000.75,16.9,23.5,01.5,01.0,0686.3,31.0
2021-04-26T11:21:00Z,00000200,01000000,0002.43,0001.69,0001.38,0000.36,0000.34,0000.70,0001.17,0000.31,0000.17,17.0,23.5,01.6,01.1,0686.3,31.0
2021-04-26T11:22:00Z,00000200,01000000,0002.88,0001.49,0001.18,0000.34,0000.31,0000.49,0000.61,0000.89,0000.94,16.9,23.5,01.7,01.1,0686.3,31.0
2021-04-26T11:23:00Z,00000200,01000000,0002.99,0001.60,0001.24,0000.04,0000.43,0000.56,0000.41,0000.27,0000.32,16.9,23.5,01.7,01.1,0686.3,31.0
2021-04-26T11:24:00Z,00000200,01000000,0002.77,0001.70,0001.04,0000.10,0000.20,0000.24,0000.80,0000.89,0000.19,16.9,23.5,01.7,01.1,0686.3,31.0
2021-04-26T11:25:00Z,00000200,01000000,0003.12,0001.39,0001.09,0000.47,0000.22,0000.36,0001.20,0000.80,0000.94,16.9,23.5,01.7,01.2,0686.3,31.0
2021-04-26T11:26:00Z,00000200,01000000,0003.08,0001.81,0001.09,0000.47,0000.23,0000.47,0000.63,0000.78,0000.69,16.9,23.5,01.7,01.2,0686.3,31.0
2021-04-26T11:27:00Z,00000200,01000000,0002.55,0001.67,0001.25,0000.21,0000.25,0000.16,0000.95,0000.78,0000.50,16.9,23.5,01.9,01.2,0686.3,31.0
2021-04-26T11:28:00Z,00000200,01000000,0002.65,0001.66,0001.05,0000.30,0000.37,0000.42,0000.49,0000.57,0000.45,16.9,23.5,01.8,01.2,0686.3,31.0
2021-04-26T11:29:00Z,00000200,01000000,0002.36,0001.65,0000.97,0000.55,0000.55,0000.35,0000.68,0000.76,0000.33,16.9,23.5,01.9,01.2,0686.3,31.0
2021-04-26T11:30:00Z,00000200,01000000,0002.55,0001.87,0000.98,0000.77,0000.39,0000.42,0000.64,0000.46,0000.39,16.9,23.5,01.8,01.2,0686.3,31.0
2021-04-26T11:31:00Z,00000200,01000000,0002.74,0001.73,0001.34,0000.31,0000.31,0000.47,0000.87,0000.38,0000.53,16.9,23.5,01.8,01.2,0686.3,31.0
2021-04-26T11:32:00Z,00000200,01000000,0002.17,0001.54,0001.06,0000.55,0000.48,0000.48,0000.66,0000.89,0000.51,16.9,23.5,01.8,01.2,0686.3,31.0
2021-04-26T11:33:00Z,00000200,01000000,0001.89,0001.66,0000.90,0000.33,0000.31,0000.62,0000.64,0000.39,0000.43,16.9,23.5,01.8,01.2,0686.3,31.0
2021-04-26T11:34:00Z,00000200,01000000,0002.97,0001.84,0001.26,0000.13,0000.34,0000.50,0000.64,0000.56,-000.02,16.9,23.5,01.8,01.2,0686.3,31.0
2021-04-26T11:35:00Z,00000200,01000000,0002.63,0001.73,0001.22,0000.22,0000.59,0000.27,0000.61,0000.73,0000.71,16.9,23.5,01.8,01.2,0686.3,31.0
2021-04-26T11:36:00Z,00000200,01000000,0002.60,0001.78,0000.86,0000.63,0000.34,0000.30,0000.79,0001.22,0000.67,17.0,23.5,01.8,01.2,0686.3,31.0
2021-04-26T11:37:00Z,00000200,00000000,0003.50,0001.56,0001.21,0000.21,0000.24,0000.38,0000.78,0000.32,0000.82,16.9,23.5,01.9,01.3,0686.3,31.0
2021-04-26T11:38:00Z,00000200,00000000,0002.56,0001.52,0001.22,0000.76,0000.28,0000.56,0000.72,0000.76,0000.24,17.0,23.5,01.9,01.3,0686.3,31.0
2021-04-26T11:39:00Z,00000200,00000000,0002.75,0001.71,0001.25,0000.34,0000.36,0000.49,0000.95,0000.64,0000.56,16.9,23.5,01.9,01.3,0686.3,31.0
2021-04-26T11:40:00Z,00000200,00000000,0003.18,0001.74,0001.11,0000.69,0000.48,0000.41,0000.89,0000.64,0000.56,17.0,23.5,02.0,01.3,0686.3,31.0
2021-04-26T11:41:00Z,00000200,01000000,0002.66,0001.79,0001.47,0000.94,0000.20,0000.51,0000.25,0000.49,0000.53,17.0,23.5,01.9,01.3,0686.3,31.0
2021-04-26T11:42:00Z,00000200,00000000,0003.22,0001.51,0001.09,0000.67,0000.27,0000.56,0000.99,0000.81,0000.77,17.0,23.5,02.0,01.3,0686.3,31.0
2021-04-26T11:43:00Z,00000200,01000000,0003.17,0001.76,0001.30,0000.64,0000.43,0000.60,0000.53,0000.44,0000.30,17.0,23.5,01.9,01.3,0686.3,31.0
2021-04-26T11:44:00Z,00000200,01000000,0002.71,0001.78,0000.85,0000.26,0000.19,0000.28,0000.82,0000.51,0000.47,17.0,23.5,02.0,01.3,0686.3,31.0
2021-04-26T11:45:00Z,00000200,00000000,0002.58,0001.70,0001.18,0000.35,0000.23,0000.62,0000.60,0000.83,0000.41,17.0,23.5,01.9,01.3,0686.3,31.0
2021-04-26T11:46:00Z,00000200,01000000,0002.30,0001.64,0001.13,0000.17,0000.35,0000.17,0000.78,0000.72,0000.34,17.1,23.5,01.9,01.3,0686.3,31.0
2021-04-26T11:47:00Z,00000200,00000000,0002.88,0001.67,0000.90,0000.41,0000.40,-000.00,0000.48,0000.30,0000.55,17.1,23.6,01.9,01.3,0686.3,31.0
2021-04-26T11:48:00Z,00000200,00000000,0001.96,0001.76,0001.28,0000.18,0000.55,0000.45,0000.50,0000.70,0000.21,17.1,23.6,01.9,01.3,0686.3,31.0
2021-04-26T11:49:00Z,00000200,00000000,0002.69,0001.64,0001.31,0000.70,0000.27,0000.49,0001.11,0000.68,0000.75,17.2,23.6,01.9,01.3,0686.3,31.0
2021-04-26T11:50:00Z,00000200,01000000,0002.77,0001.70,0001.17,0000.49,0000.60,0000.43,0000.70,0000.16,0000.25,17.1,23.6,01.9,01.3,0686.3,31.0
2021-04-26T11:51:00Z,00000200,00000000,0002.87,0002.13,0001.25,0000.82,0000.41,0000.64,0000.60,0001.26,0000.58,17.1,23.6,01.9,01.3,0686.3,31.0
2021-04-26T11:52:00Z,00000200,01000000,0002.66,0001.84,0001.23,0000.76,0000.34,0000.48,0000.51,0000.46,0000.67,17.2,23.6,01.9,01.3,0686.3,31.0
2021-04-26T11:53:00Z,00000200,00000000,0002.51,0001.66,0001.08,0000.87,0000.46,0000.38,0001.16,0001.00,0000.41,17.2,23.6,02.0,01.4,0686.3,31.0
2021-04-26T11:54:00Z,00000200,00000000,0003.44,0001.55,0001.04,0000.66,0000.34,0000.39,0000.74,0000.57,0000.60,17.1,23.6,02.1,01.4,0686.3,31.0
2021-04-26T11:55:00Z,00000200,00000000,0002.41,0001.77,0001.18,0000.33,0000.56,0000.32,0001.25,0000.75,0000.36,17.1,23.6,02.2,01.5,0686.3,31.0
2021-04-26T11:56:00Z,00000200,01000000,0003.42,0001.93,0001.33,0000.41,0000.49,0000.33,0000.24,0000.73,0000.73,17.1,23.6,02.1,01.4,0686.3,31.0
2021-04-26T11:57:00Z,00000200,40000000,,,,,,,-000.04,-000.22,-000.29,17.2,23.6,01.5,01.0,0686.3,31.0
2021-04-26T11:58:00Z,00000200,60000000,,,,,,,-000.09,-000.14,0000.13,17.0,23.7,01.7,01.1,0685.3,31.0
2021-04-26T11:59:00Z,00000200,20000000,,,,,,,-000.16,0000.19,0000.01,17.0,23.8,01.7,01.1,0685.3,31.0
